Flag for Cote d'Ivoire (Ivory Coast) Weather past 2 weeks in Abidjan, Cote d'Ivoire (Ivory Coast)

Now
88 °F

Passing clouds.


Feels Like: 100 °F
Forecast: 77 / 91 °F
Wind: 14 mph from Southwest

Location: Abidjan Airport

Current Time: Mar 31, 2015 at 12:46:12 PM

Latest Report: Mar 31, 2015 at 12:00 PM


Visibility: N/A

Pressure: 29.86 "Hg

Humidity: 70%

Dew point: 77 °F

Location of AbidjanLocation

Historic Weather in Abidjan — Graph

°F

Abidjan temperature yesterday

Maximum temperature yesterday: 88 °F (at 10:30 AM)
Minimum temperature yesterday: 77 °F (at 1:30 PM)
Average temperature yesterday: 82 °F

Past Weeks' High & Low Weather Summary

 TemperatureHumidityPressure
High91 °F (Mar 23, 1:00 PM)100% (Mar 18, 6:30 AM)29.98 "Hg (Mar 18, 6:30 AM)
Low72 °F (Mar 27, 2:00 AM)55% (Mar 17, 12:00 PM)29.68 "Hg (Mar 20, 4:30 PM)
Average83 °F84%29.83 "Hg
* Reported Mar 16 11:00 AM — Mar 31 11:30 AM, Abidjan, Weather by CustomWeather, © 2015

Note: Actual official high and low records may vary slightly from our data, if they occured in-between our weather recording intervals... More about our weather records

Advertising

Abidjan weather history for previous 24 hours

 ConditionsComfort  
Time TempWeatherWind HumidityBarometerVisibility
11:30 AM
Tue, Mar 31
88 °FPassing clouds.12 mph70%29.89 "HgN/A
11:00 AM88 °FPassing clouds.12 mph66%29.89 "HgN/A
10:30 AM88 °FScattered clouds.9 mph75%29.89 "HgN/A
10:00 AM86 °FScattered clouds.7 mph79%29.92 "HgN/A
9:30 AM86 °FScattered clouds.6 mph79%29.92 "HgN/A
9:00 AM86 °FPassing clouds.6 mph79%29.89 "Hg6 mi
8:30 AM84 °FPassing clouds.5 mph84%29.89 "Hg5 mi
8:00 AM82 °FPassing clouds.3 mph89%29.89 "Hg5 mi
7:30 AM81 °FScattered clouds.2 mph100%29.86 "HgN/A
7:00 AM81 °FScattered clouds.3 mph94%29.86 "HgN/A
6:30 AM79 °FScattered clouds.3 mph100%29.86 "HgN/A
6:00 AM77 °FPassing clouds.2 mph100%29.83 "HgN/A
5:30 AM77 °FPassing clouds.1 mph100%29.83 "HgN/A
5:00 AM77 °FPassing clouds.No wind100%29.83 "HgN/A
4:30 AM77 °FPassing clouds.1 mph100%29.80 "HgN/A
4:00 AM75 °FPassing clouds.5 mph100%29.80 "HgN/A
3:30 AM75 °FPassing clouds.5 mph100%29.80 "HgN/A
3:00 AM77 °FPassing clouds.1 mph94%29.80 "HgN/A
2:30 AM77 °FPassing clouds.3 mph100%29.80 "HgN/A
2:00 AM77 °FPassing clouds.1 mph94%29.83 "HgN/A
1:30 AM77 °FPassing clouds.1 mph94%29.83 "HgN/A
1:00 AM77 °FPassing clouds.1 mph94%29.83 "HgN/A
12:30 AM77 °FPassing clouds.1 mph100%29.86 "HgN/A
12:00 AM77 °FPassing clouds.1 mph100%29.86 "HgN/A
11:30 PM
Mon, Mar 30
77 °FPassing clouds.3 mph94%29.86 "HgN/A
11:00 PM77 °FPassing clouds.2 mph100%29.89 "HgN/A
10:30 PM77 °FPassing clouds.2 mph100%29.89 "HgN/A
10:00 PM77 °FPassing clouds.5 mph100%29.89 "HgN/A
9:30 PM77 °FPassing clouds.2 mph100%29.89 "HgN/A
9:00 PM79 °FPassing clouds.1 mph94%29.86 "HgN/A
8:30 PM79 °FPassing clouds.2 mph94%29.89 "HgN/A
8:00 PM79 °FPassing clouds.1 mph94%29.86 "HgN/A
7:30 PM79 °FPassing clouds.1 mph94%29.86 "HgN/A
7:00 PM79 °FPassing clouds.3 mph94%29.83 "HgN/A
6:30 PM81 °FPassing clouds.3 mph84%29.80 "HgN/A
6:00 PM82 °FPartly sunny.7 mph79%29.80 "HgN/A
5:30 PM82 °FPassing clouds.8 mph79%29.80 "HgN/A
5:00 PM82 °FPassing clouds.8 mph79%29.80 "HgN/A
4:30 PM82 °FPassing clouds.10 mph79%29.77 "HgN/A
4:02 PM82 °FBroken clouds.8 mph79%29.80 "Hg5 mi
3:30 PM81 °FThunderstorms. Partly sunny.8 mph94%29.80 "Hg5 mi
3:00 PM79 °FThunderstorms. Partly sunny.5 mph94%29.80 "Hg5 mi
2:30 PM77 °FThunderstorms. Partly sunny.2 mph94%29.80 "Hg4 mi
2:00 PM77 °FThunderstorms. Partly sunny.5 mph94%29.83 "Hg4 mi
1:30 PM77 °FThunderstorms. Broken clouds.5 mph94%29.83 "Hg4 mi
1:00 PM82 °FThunderstorms. Broken clouds.6 mph79%29.86 "HgN/A
12:30 PM84 °FThunderstorms. Broken clouds.14 mph79%29.86 "HgN/A
12:00 PM86 °FScattered clouds.13 mph79%29.86 "HgN/A
Weather by CustomWeather, © 2015

See weather overviewHow to use our weather pages